Regional Weather Roundup
Issued by NWS

Home | Current Version | Previous Version | Text Only | Print | Product List | Glossary On
Versions: 1 2 3 4 5 6 7 8 9 10 11 12 13 14 15 16 17 18 19 20 21 22 23 24 25 26 27 28
000
ASUS42 KKEY 251810
RWRKEY

FLORIDA REGIONAL WEATHER ROUNDUP FOR THE FLORIDA KEYS
NATIONAL WEATHER SERVICE KEY WEST FLORIDA
100 PM EST SUN FEB 25 2018

...SOUTH FLORIDA AND THE KEYS...

CITY           SKY/WX    TMP DP  RH WIND       PRES   REMARKS
FORT MYERS     FAIR      86  65  49 SW8       30.14F
SW REGIONAL AP FAIR      83  65  54 S9        30.14F
NAPLES         FAIR      85  65  51 S12       30.14F
MIAMI          PTSUNNY   82  67  60 E14       30.16F
WEST KENDALL   FAIR      83  65  54 SE9       30.15F
HOMESTEAD      FAIR      82  68  63 E14       30.15F
MARATHON       FAIR      82  68  62 SE10      30.15F
KEY WEST INTL  FAIR      81  69  67 SE13      30.15F

...INTERNATIONAL WEATHER...

CITY           SKY/WX    TMP DP  RH WIND       PRES   REMARKS
NASSAU BAHAMAS MOSUNNY   82  68  61 E10       30.17F
CANCUN MEXICO  PTSUNNY   82  70  65 SE14      30.07F
COZUMEL MEXICO PTSUNNY   86  70  58 SE8       30.05F HX  90

ADJACENT COASTAL WATERS...

STATION/POSITION TIME  SKY/WX   TEMP    WIND        PRES    WAVE
                                AIR SEA DIR/SP/G            HT/PER
                 (UTC)          (F)     (DEG/KT/KT) (MB)    (FT/S)
PULASKI SHOAL LI 1800            78     130/ 10/ 12 1020.5F
SAND KEY         1750            77                 1021.3F
LONG KEY         1600                   160/ 10       N/A
MOLASSES REEF    1800            76 78  130/ 11/ 13 1021.5F
FOWEY ROCKS      1800            76 77  120/ 13/ 14 1021.9F
Buoy 42097       1800               76                N/A     2/ 5

$$




USA.gov is the U.S. government's official web portal to all federal, state and local government web resources and services.